Location: Allen Fire Department Station 4
(33.1073°N, 96.6988°W)
Time: 08:45:21
(UTC+00:00)

Cosmos 1763 Rocket - Pass Details

Date: 29 June 2022
Orbit: 732 x 780 km, 74.0° (Epoch: 09 August)

Event Time Altitude Azimuth Distance (km) Brightness Sun altitude
Exits shadow 09:41:15 10° 283° (WNW) 2,262 5.6 -17.6°
Maximum altitude 09:42:46 12° 301° (WNW) 2,185 5.7 -17.4°
Drops below altitude 10° 09:44:31 10° 320° (NW) 2,300 6.0 -17.1°
Sets 09:48:45 0° 353° (N) 3,244 7.3 -16.5°
